Find Starlink 35009

NORAD ID: 65449 Int'l Des: 2025-194 Owner: SPXS Country: US Constellation: starlink operational
LEOCIRCULARRETROGRADESSO

当前视图

正在加载3D地球...

About Starlink 35009

Starlink 35009 (NORAD 65449) is a starlink constellation satellite (v2 mini) launched Sep 3, 2025 by SPXS of US. It operates in LEO, CIRCULAR, RETROGRADE, SSO orbit with a mass of 575.00 kg.

关于 Starlink 35009

正在加载描述...

即将过境

Passes for default location (London). Set your location on the main map for personalized predictions.

高度历史

Loading altitude history...

两行轨道根数

1 65449U 25194R 26195.16705166 .00002691 00000-0 19031-3 0 9999
2 65449 97.2845 47.0913 0002516 93.3140 266.8375 15.05657437 48689
Epoch: Jul 14, 2026 • Age: 12 hours

当前状态

高度 553.6 km
远地点 / 近地点 N/A
速度 7.58 km/s
星下点 -5.70°S, 54.37°E
发射日期 Sep 3, 2025
运行时间 0.8 years
类型 internet

技术详情

分类 Payload
质量 575.00 kg
干质量 530.00 kg
总质量 575.00 kg
长度 0.30 m
直径 4.10 m
跨度 29.00 m
形状 Box + pan
制造商 SPXS
平台类型 Starlink V2MO
阶段状态 In Orbit
所有者/国家 SPXS/US

Most Searched